Location: Sternwarte Stuttgart
(48.7670°N, 9.1830°E)
Time: 22:54:38
(UTC+01:00)

Cosmos 1892 - Pass Details

Date: 24 January 2019
Orbit: 506 x 525 km, 82.5° (Epoch: 15 February)

Event Time Altitude Azimuth Distance (km) Brightness Sun altitude
Rises 07:05:34 0° 353° (N) 2,638 6.0 -9.6°
Reaches altitude 10° 07:07:44 10° 358° (N) 1,749 5.2 -9.2°
Maximum altitude 07:11:31 57° 78° (ENE) 616 3.4 -8.6°
Drops below altitude 10° 07:15:18 10° 157° (SSE) 1,746 6.0 -8.0°
Sets 07:17:27 0° 162° (SSE) 2,632 6.9 -7.7°
